Regional Weather Roundup
Issued by NWS Upton, NY

Current Version | Previous Version | Graphics & Text | Print | Product List | Glossary Off
Versions: 1 2 3 4 5 6 7 8 9 10 11 12 13 14 15 16 17 18 19 20 21 22 23 24 25 26 27 28 29 30 31 32 33 34 35 36 37 38 39 40 41 42 43 44 45 46 47 48 49 50

284
ASUS41 KOKX 290609
RWROKX

REGIONAL WEATHER ROUNDUP
NATIONAL WEATHER SERVICE NEW YORK NY
200 AM EDT MON MAY 29 2017

NOTE: "FAIR" INDICATES FEW OR NO CLOUDS BELOW 12,000 FEET WITH NO
SIGNIFICANT WEATHER AND/OR OBSTRUCTIONS TO VISIBILITY.

NYZ071-072-176-178-NJZ106-104-290700-
NEW YORK CITY METRO AREA

CITY           SKY/WX    TMP DP  RH WIND       PRES   REMARKS
Central Park   CLOUDY    61  52  72 VRB5      29.92F
Wall St Helipt CLOUDY    61  54  77 E10       29.90S
Bronx Bot Gard   N/A     57  52  82 S1        29.91F
LaGuardia APRT CLOUDY    61  53  75 E12       29.89F
Kennedy INTL   CLOUDY    59  55  87 E12       29.90F
Breezy Point     N/A     57 N/A N/A E12G17      N/A
Newark/Liberty CLOUDY    61  53  75 E7        29.89S
Teterboro      DRIZZLE   61  52  72 E5        29.88F
$$

NYZ177-179-078>081-290700-
LONG ISLAND NEW YORK

CITY           SKY/WX    TMP DP  RH WIND       PRES   REMARKS
Jones Beach      N/A     57 N/A N/A E12         N/A
Matinecock PT    N/A     59 N/A N/A E17         N/A
Farmingdale    CLOUDY    59  52  77 E10       29.89F
MacArthur/ISP  CLOUDY    57  53  86 E9        29.90F
Shirley        CLOUDY    57  54  89 MISG      29.91F
Mt Sinai Harb    N/A     57 N/A N/A E3          N/A
Westhampton    CLOUDY    56  52  86 E6        29.93F
East Hampton   MOCLDY    55  52  90 E8        29.93S
Montauk        NOT AVBL
$$

NYZ052-065-067-290700-
HUDSON VALLEY

CITY           SKY/WX    TMP DP  RH WIND       PRES   REMARKS
White Plains   MOCLDY    57  51  80 E7        29.90F
Larchmont Harb   N/A     57 N/A N/A NE18        N/A
Croton O-T Hud   N/A     57 N/A N/A NE1         N/A
Newburgh       MOCLDY    57  52  82 E8        29.92F
Montgomery     CLOUDY    57  52  83 N6        29.90F
Poughkeepsie   CLOUDY    55  50  83 CALM      29.91S
Albany         PTCLDY    59  48  67 VRB7      29.89F
$$

NJZ001-105-106-008-010-013-015-019>022-104-290700-
NEW JERSEY

CITY           SKY/WX    TMP DP  RH WIND       PRES   REMARKS
Newark/Liberty CLOUDY    61  53  75 E7        29.89S
Teterboro      DRIZZLE   61  52  72 E5        29.88F
Caldwell       CLOUDY    61  52  72 E6        29.90S
Somerville     LGT RAIN  58  56  93 CALM      29.86F
Linden         CLOUDY    59  53  82 SE8       29.88F
Perth Amboy      N/A     57 N/A N/A E12         N/A
Sussex         CLOUDY    59  52  77 E3        29.90F
Andover          N/A     58  52  80 CALM      29.89F
Trenton        LGT RAIN  58  56  93 E8        29.85F
Millville      LGT RAIN  59  59 100 NE7       29.82S
Atlantic City  LGT RAIN  58  50  75 E10       29.82S
Wrightstown    LGT RAIN  57  57 100 NE8       29.83S
Toms River     NOT AVBL
Belmar         LGT RAIN  57  56  96 E10       29.87F
$$

PAZ047>061-062-071-290700-
EASTERN PENNSYLVANIA

CITY           SKY/WX    TMP DP  RH WIND       PRES   REMARKS
Philadelphia   LGT RAIN  60  57  89 E8        29.84F
Allentown      CLOUDY    58  54  86 NE7       29.86F
Scranton       LGT RAIN  57  54  89 NE5       29.85F
$$

CTZ002-004>006-009-010-012-RIZ004-006-007-MAZ004-011-015-290700-
SOUTHERN NEW ENGLAND
 IN CT

CITY           SKY/WX    TMP DP  RH WIND       PRES   REMARKS
Bradley INTL   CLOUDY    54  49  83 S5        29.95F
Hartford       CLOUDY    55  50  83 SE3       29.95F
Danbury        CLOUDY    54  52  93 E7        29.94S
Wtrbury/Oxford   N/A     54  48  82 E3        29.95S
Bridgeport     CLOUDY    58  53  84 NE14      29.93F
Meriden        CLOUDY    54  51  90 CALM      29.95S
New Haven      CLOUDY    55  52  89 E6        29.93F
Chester        CLOUDY    54  52  94 CALM      29.95S
Groton         PTCLDY    55  50  83 E9        29.95S
Wilimantic     CLOUDY    54  50  86 CALM      29.96F

 IN RI

CITY           SKY/WX    TMP DP  RH WIND       PRES   REMARKS
Providence     CLOUDY    52  50  93 SE5       29.98F
Block Island   MOCLDY    54  50  86 SE9       29.96
Westerly       CLOUDY    55  51  86 E7        29.96F
 IN MA

CITY           SKY/WX    TMP DP  RH WIND       PRES   REMARKS
Boston         CLOUDY    53  49  86 S9        29.99S
Worcester      PTCLDY    50  45  83 S6        29.97F
Westfield      NOT AVBL
Provincetown   PTCLDY    49  47  93 E6        30.01F
Nantucket      CLOUDY    49  46  90 SE15      29.98F
$$

ANZ330-335-338-340-345-350-353-355-290700-
COASTAL MARINE OBSERVATIONS


STATION/POSITION TIME  SKY/WX   TEMP    WIND        PRES    VSBY  WAVE
                                AIR SEA DIR/SP/G                  HT/PER
                 (UTC)          (F)     (DEG/KT/KT) (MB)    (MI)  (FT/S)
NY HARB ENTRANCE 0450            58 58  100/ 16/ 17 1011.5          3/ 5
20 S FIRE ISLAND 0550            57 56  110/ 16/ 19 1010.7          4/ 5
GREAT SOUTH BAY  0530            59 64  100/ 14/ 17   N/A
23 SSW MONTAUK P 0450            56 55              1013.5          3/ 4
15 E BARNEGAT LI 0500               60                N/A           5/ 6
HUDSON CANYON    0450            58 54  110/ 19/ 21 1010.6          6/ 6
KINGS POINT      0536               60   90/  4/  7 1012.3
EXECUTION ROCKS  0545            59                   N/A
CENTRAL LI SOUND 0515            54      90/ 12/ 14   N/A           1/25
EASTERN LI SOUND NOT AVBL
ROBBINS REEF     0548                   110/ 13/ 15 1012.6
$$


>>>>>>>>>>>>>>>>>>>>>>>>>>>> KEY <<<<<<<<<<<<<<<<<<<<<<<<<<<
>                                                          <
>     SKY/WX - Sky Condition/Present Weather               <
>     TMP    - Temperature in Fahrenheit                   <
>     DP     - Dew Point in Fahrenheit                     <
>     RH     - Relative Humidity in Percent                <
>     WIND   - Direction (from) and Speed in MPH           <
>     PRES   - Mean Sea Level Pressure (inches of Hg)      <
>     WCI    - Wind Chill Index                            <
>     VSB    - VISIBILITY IN MILES                         <
>     HX     - HEAT INDEX                                  <
>     TC     - TEMPERATURE IN CELSIUS                      <
>     VRB    - VARIABLE WIND DIRECTION                     <
>                                                          <
>>>>>>>>>>>>>>>>>>>>>>>>>>>> KEY <<<<<<<<<<<<<<<<<<<<<<<<<<<




USA.gov is the U.S. government's official web portal to all federal, state and local government web resources and services.